AC223 GOGS-GOBD

Flight info

Callsign AC223
Flight time N/A
Altitude 22000
Route ZG DCT BJ DCT DEPAL
Aircraft A319/M-SDE3FGHIRWY/LB1

Departure

Time 2026-05-08 23:29
Airport Cap Skirring Airport (GOGS)

Arrival

Time N/A
Airport Blaise Diagne International Airport (GOBD)
Time Latitude Longitude Altitude Speed Heading
2026-05-08 23:11 12.38853 -16.74254 28 ft 0 kts 327°
2026-05-08 23:26 12.38853 -16.74255 1 ft 1 kts 327°
2026-05-08 23:26 12.38858 -16.74247 28 ft 1 kts 72°
2026-05-08 23:27 12.38860 -16.74231 28 ft 4 kts 84°
2026-05-08 23:27 12.38870 -16.74174 29 ft 12 kts 66°
2026-05-08 23:27 12.38896 -16.74158 29 ft 3 kts 333°
2026-05-08 23:27 12.38914 -16.74175 30 ft 4 kts 312°
2026-05-08 23:28 12.38929 -16.74193 30 ft 2 kts 310°
2026-05-08 23:28 12.38933 -16.74197 30 ft 2 kts 310°
2026-05-08 23:28 12.39060 -16.74331 31 ft 65 kts 315°
2026-05-08 23:28 12.39551 -16.74819 37 ft 129 kts 315°
2026-05-08 23:29 12.40244 -16.75519 472 ft 136 kts 316°
2026-05-08 23:29 12.40900 -16.76171 1184 ft 130 kts 320°
2026-05-08 23:29 12.41590 -16.76822 1634 ft 141 kts 321°
2026-05-08 23:29 12.42478 -16.77359 1900 ft 162 kts 354°
2026-05-08 23:30 12.43603 -16.76978 2118 ft 191 kts 38°
2026-05-08 23:30 12.44282 -16.75701 2372 ft 222 kts 69°
2026-05-08 23:30 12.44690 -16.74080 2671 ft 248 kts 73°
2026-05-08 23:30 12.45088 -16.72312 3341 ft 259 kts 75°
2026-05-08 23:31 12.45489 -16.70499 4160 ft 263 kts 75°
2026-05-08 23:31 12.45900 -16.68667 4995 ft 266 kts 76°
2026-05-08 23:31 12.46325 -16.66814 5804 ft 269 kts 75°
2026-05-08 23:31 12.46762 -16.64940 6632 ft 272 kts 75°
2026-05-08 23:32 12.47209 -16.63055 7414 ft 274 kts 76°
2026-05-08 23:32 12.47659 -16.61173 8205 ft 277 kts 76°
2026-05-08 23:32 12.48128 -16.59226 9005 ft 280 kts 77°
2026-05-08 23:32 12.48588 -16.57307 9808 ft 282 kts 77°
2026-05-08 23:33 12.49061 -16.55312 10232 ft 300 kts 78°
2026-05-08 23:33 12.49569 -16.53160 10484 ft 320 kts 77°
2026-05-08 23:33 12.50105 -16.50914 11044 ft 328 kts 77°
2026-05-08 23:33 12.50655 -16.48631 11704 ft 333 kts 77°
2026-05-08 23:34 12.51213 -16.46318 12393 ft 337 kts 77°
2026-05-08 23:34 12.51776 -16.43974 13090 ft 341 kts 78°
2026-05-08 23:34 12.52341 -16.41607 13784 ft 345 kts 78°
2026-05-08 23:34 12.52911 -16.39211 14373 ft 349 kts 78°
2026-05-08 23:35 12.53491 -16.36787 14946 ft 353 kts 76°
2026-05-08 23:35 12.54438 -16.34450 15493 ft 361 kts 59°
2026-05-08 23:35 12.56096 -16.32505 16055 ft 368 kts 40°
2026-05-08 23:35 12.58318 -16.31193 16624 ft 374 kts 21°
2026-05-08 23:36 12.60851 -16.30692 17182 ft 380 kts
2026-05-08 23:36 12.63472 -16.31089 17733 ft 386 kts 341°
2026-05-08 23:36 12.65929 -16.32213 18297 ft 388 kts 334°
2026-05-08 23:36 12.68370 -16.33420 18768 ft 392 kts 334°
2026-05-08 23:37 12.70841 -16.34638 19202 ft 396 kts 334°
2026-05-08 23:37 12.73336 -16.35859 19726 ft 399 kts 334°
2026-05-08 23:37 12.75850 -16.37089 20235 ft 401 kts 334°
2026-05-08 23:37 12.78378 -16.38327 20708 ft 404 kts 334°
2026-05-08 23:38 12.80929 -16.39578 21169 ft 408 kts 333°
2026-05-08 23:38 12.83501 -16.40839 21652 ft 411 kts 333°
2026-05-08 23:38 12.86088 -16.42105 21892 ft 413 kts 333°
2026-05-08 23:38 12.88659 -16.43364 21944 ft 405 kts 333°
2026-05-08 23:39 12.91186 -16.44606 21944 ft 401 kts 333°
2026-05-08 23:39 12.93704 -16.45840 21945 ft 400 kts 333°
2026-05-08 23:39 12.96186 -16.47056 21949 ft 400 kts 333°
2026-05-08 23:39 12.98692 -16.48285 21944 ft 400 kts 333°
2026-05-08 23:40 13.01201 -16.49517 21947 ft 399 kts 333°
2026-05-08 23:40 13.03712 -16.50748 21948 ft 399 kts 333°
2026-05-08 23:40 13.06219 -16.51976 21948 ft 399 kts 333°
2026-05-08 23:40 13.08724 -16.53205 21948 ft 399 kts 333°
2026-05-08 23:41 13.11233 -16.54438 21950 ft 399 kts 333°
2026-05-08 23:41 13.13740 -16.55675 21951 ft 399 kts 333°
2026-05-08 23:41 13.16249 -16.56912 21952 ft 400 kts 333°
2026-05-08 23:41 13.18754 -16.58144 21953 ft 400 kts 333°
2026-05-08 23:42 13.21263 -16.59376 21951 ft 400 kts 333°
2026-05-08 23:42 13.23775 -16.60609 21952 ft 400 kts 333°
2026-05-08 23:42 13.26284 -16.61843 21952 ft 399 kts 333°
2026-05-08 23:42 13.28790 -16.63077 21952 ft 399 kts 333°
2026-05-08 23:43 13.31293 -16.64312 21960 ft 399 kts 333°
2026-05-08 23:43 13.33801 -16.65543 21959 ft 399 kts 333°
2026-05-08 23:43 13.36310 -16.66674 21967 ft 400 kts 336°
2026-05-08 23:43 13.38895 -16.67726 21970 ft 400 kts 338°
2026-05-08 23:44 13.41503 -16.68725 21971 ft 400 kts 338°
2026-05-08 23:44 13.44117 -16.69708 21971 ft 400 kts 339°
2026-05-08 23:44 13.46725 -16.70694 21969 ft 400 kts 338°
2026-05-08 23:44 13.49334 -16.71700 21964 ft 400 kts 337°
2026-05-08 23:45 13.51938 -16.72724 21962 ft 400 kts 338°
2026-05-08 23:45 13.54550 -16.73764 21966 ft 407 kts 336°
2026-05-08 23:45 13.57165 -16.74813 21932 ft 397 kts 336°
2026-05-08 23:45 13.59704 -16.75831 21676 ft 388 kts 337°
2026-05-08 23:46 13.62206 -16.76833 21248 ft 384 kts 337°
2026-05-08 23:46 13.64690 -16.77828 20830 ft 381 kts 337°
2026-05-08 23:46 13.67148 -16.78810 20423 ft 378 kts 337°
2026-05-08 23:46 13.69587 -16.79782 20022 ft 374 kts 338°
2026-05-08 23:47 13.72007 -16.80744 19603 ft 372 kts 338°
2026-05-08 23:47 13.74412 -16.81701 19180 ft 370 kts 338°
2026-05-08 23:47 13.76801 -16.82650 18810 ft 366 kts 338°
2026-05-08 23:47 13.79173 -16.83595 18444 ft 363 kts 338°
2026-05-08 23:48 13.81517 -16.84528 18030 ft 361 kts 339°
2026-05-08 23:48 13.83850 -16.85460 17577 ft 359 kts 338°
2026-05-08 23:48 13.86176 -16.86393 17152 ft 357 kts 338°
2026-05-08 23:48 13.88452 -16.87304 16760 ft 354 kts 339°
2026-05-08 23:49 13.90742 -16.88218 16339 ft 352 kts 339°
2026-05-08 23:49 13.93023 -16.89126 15924 ft 351 kts 339°
2026-05-08 23:49 13.95301 -16.90035 15527 ft 350 kts 339°
2026-05-08 23:49 13.97559 -16.90939 15162 ft 347 kts 339°
2026-05-08 23:50 13.99802 -16.91836 14788 ft 345 kts 339°
2026-05-08 23:50 14.02039 -16.92729 14391 ft 345 kts 339°
2026-05-08 23:50 14.04277 -16.93622 13999 ft 344 kts 339°
2026-05-08 23:50 14.06499 -16.94507 13634 ft 342 kts 339°
2026-05-08 23:51 14.08708 -16.95385 13251 ft 339 kts 340°
2026-05-08 23:51 14.10904 -16.96259 12821 ft 338 kts 340°
2026-05-08 23:51 14.13097 -16.97136 12392 ft 337 kts 340°
2026-05-08 23:51 14.15255 -16.98000 12238 ft 327 kts 340°
2026-05-08 23:52 14.17342 -16.98840 12078 ft 318 kts 340°
2026-05-08 23:52 14.19390 -16.99662 11816 ft 313 kts 340°
2026-05-08 23:52 14.21385 -17.00464 11694 ft 303 kts 341°
2026-05-08 23:52 14.23321 -17.01243 11574 ft 294 kts 340°
2026-05-08 23:53 14.25195 -17.01996 11453 ft 285 kts 340°
2026-05-08 23:53 14.27015 -17.02724 11332 ft 276 kts 341°
2026-05-08 23:53 14.28775 -17.03427 11212 ft 267 kts 341°
2026-05-08 23:53 14.30482 -17.04109 11093 ft 258 kts 341°
2026-05-08 23:54 14.32127 -17.04768 10984 ft 249 kts 341°
2026-05-08 23:54 14.33727 -17.05408 10756 ft 246 kts 341°
2026-05-08 23:54 14.35297 -17.06035 10595 ft 240 kts 341°
2026-05-08 23:55 14.38437 -17.07193 10005 ft 237 kts 358°
2026-05-08 23:55 14.40007 -17.06993 9823 ft 222 kts 26°
2026-05-08 23:55 14.41239 -17.06160 9581 ft 212 kts 51°
2026-05-08 23:55 14.41982 -17.04933 9476 ft 195 kts 72°
2026-05-08 23:56 14.42193 -17.03604 9322 ft 183 kts 94°
2026-05-08 23:56 14.41928 -17.02363 9185 ft 174 kts 113°
2026-05-08 23:56 14.41292 -17.01346 9063 ft 166 kts 131°
2026-05-08 23:56 14.40407 -17.00627 8920 ft 160 kts 149°
2026-05-08 23:57 14.39359 -17.00247 8695 ft 162 kts 167°
2026-05-08 23:57 14.38232 -17.00167 8442 ft 163 kts 176°
2026-05-08 23:57 14.37091 -17.00170 8187 ft 164 kts 177°
2026-05-08 23:57 14.35945 -17.00184 7936 ft 165 kts 177°
2026-05-08 23:58 14.34798 -17.00197 7700 ft 165 kts 176°
2026-05-08 23:58 14.33645 -17.00208 7439 ft 166 kts 176°
2026-05-08 23:58 14.32490 -17.00218 7190 ft 166 kts 175°
2026-05-08 23:58 14.31323 -17.00226 6936 ft 168 kts 177°
2026-05-08 23:59 14.30195 -17.00369 6732 ft 161 kts 193°
2026-05-08 23:59 14.29176 -17.00838 6443 ft 161 kts 213°
2026-05-08 23:59 14.28362 -17.01635 6090 ft 164 kts 235°
2026-05-08 23:59 14.27861 -17.02677 5779 ft 160 kts 257°
2026-05-09 00:00 14.27731 -17.03780 5458 ft 156 kts 278°
2026-05-09 00:00 14.27943 -17.04846 5170 ft 149 kts 297°
2026-05-09 00:00 14.28443 -17.05749 4880 ft 142 kts 316°
2026-05-09 00:00 14.29143 -17.06429 4588 ft 136 kts 331°
2026-05-09 00:01 14.30015 -17.06681 4234 ft 131 kts
2026-05-09 00:01 14.30910 -17.06795 4014 ft 127 kts 356°
2026-05-09 00:01 14.31817 -17.06875 4009 ft 133 kts 358°
2026-05-09 00:01 14.32735 -17.06921 3994 ft 130 kts
2026-05-09 00:02 14.33644 -17.06949 4003 ft 130 kts
2026-05-09 00:02 14.34541 -17.06967 3994 ft 128 kts
2026-05-09 00:02 14.35440 -17.06980 3996 ft 130 kts
2026-05-09 00:02 14.36349 -17.06992 3994 ft 132 kts
2026-05-09 00:03 14.37268 -17.07002 3999 ft 131 kts
2026-05-09 00:03 14.38172 -17.07011 3990 ft 129 kts
2026-05-09 00:03 14.39072 -17.07020 3997 ft 129 kts
2026-05-09 00:03 14.39969 -17.07028 3990 ft 130 kts
2026-05-09 00:04 14.40881 -17.07037 3993 ft 131 kts
2026-05-09 00:04 14.41799 -17.07045 3993 ft 132 kts
2026-05-09 00:04 14.42719 -17.07054 4000 ft 131 kts
2026-05-09 00:04 14.43637 -17.07062 4002 ft 132 kts
2026-05-09 00:05 14.44245 -17.07068 4001 ft 131 kts
2026-05-09 00:05 14.45155 -17.07077 3958 ft 132 kts
2026-05-09 00:05 14.46364 -17.07088 3809 ft 132 kts
2026-05-09 00:05 14.47290 -17.07096 3680 ft 132 kts
2026-05-09 00:06 14.48198 -17.07105 3505 ft 130 kts
2026-05-09 00:06 14.48796 -17.07111 3418 ft 129 kts
2026-05-09 00:06 14.49687 -17.07119 3260 ft 127 kts
2026-05-09 00:06 14.50566 -17.07127 3100 ft 126 kts 359°
2026-05-09 00:07 14.51451 -17.07135 2939 ft 128 kts
2026-05-09 00:07 14.52340 -17.07144 2778 ft 126 kts 360°
2026-05-09 00:07 14.53205 -17.07152 2615 ft 124 kts 360°
2026-05-09 00:07 14.54063 -17.07160 2460 ft 123 kts 359°
2026-05-09 00:08 14.54917 -17.07168 2301 ft 122 kts 359°
2026-05-09 00:08 14.55763 -17.07176 2153 ft 121 kts 359°
2026-05-09 00:08 14.56604 -17.07184 1994 ft 121 kts 358°
2026-05-09 00:08 14.57439 -17.07191 1849 ft 120 kts
2026-05-09 00:09 14.58267 -17.07199 1692 ft 119 kts
2026-05-09 00:09 14.59097 -17.07207 1536 ft 119 kts
2026-05-09 00:09 14.59926 -17.07215 1375 ft 119 kts 359°
2026-05-09 00:09 14.60742 -17.07217 1216 ft 119 kts
2026-05-09 00:10 14.61574 -17.07208 1107 ft 119 kts 358°
2026-05-09 00:10 14.62398 -17.07229 932 ft 119 kts 357°
2026-05-09 00:10 14.63219 -17.07274 775 ft 118 kts 358°
2026-05-09 00:10 14.64044 -17.07260 640 ft 118 kts
2026-05-09 00:11 14.64867 -17.07242 489 ft 119 kts
2026-05-09 00:11 14.65684 -17.07266 316 ft 112 kts 358°